GOMX4-A

Last updated on Sat Feb 09 2019 03:04:20 GMT+0000 (Coordinated Universal Time)

1 43197U 18015F 19039.69758468 .00000298 00000-0 15228-4 0 9995 2 43197 97.3732 169.2674 0020824 48.8588 57.6616 15.23899241 56555

Satellite not in orbit

GOMX4-A